Terminal Aerodrome Forecast
Issued by NWS

Home | Current Version | Previous Version | Graphics & Text | Print | Product List | Glossary On
Versions: 1 2 3 4 5 6 7 8 9 10 11 12 13 14 15 16 17 18 19 20 21 22 23
000
FTUS43 KICT 191900 AAA
TAFCNU
TAF AMD
KCNU 191923Z 1919/2018 17007KT 6SM BR OVC009
     FM192000 18007KT P6SM BKN015
     FM192100 18007KT P6SM BKN035
     FM200000 17007KT P6SM SCT040
     FM200700 17005KT 4SM BR SCT250
     FM201200 18005KT 4SM BR OVC015=

USA.gov is the U.S. government's official web portal to all federal, state and local government web resources and services.